Regional Weather Roundup
Issued by NWS

Home | Current Version | Previous Version | Graphics & Text | Print | Product List | Glossary On
Versions: 1 2 3 4 5 6 7 8 9 10 11 12 13 14 15 16 17 18 19 20 21 22 23 24 25 26 27 28 29 30 31 32 33 34 35 36 37 38 39 40 41 42 43 44 45 46 47 48 49 50
540
ASUS43 KOAX 172010
RWRNE

WEATHER ROUNDUP FOR NEBRASKA
NATIONAL WEATHER SERVICE OMAHA NE
200 PM CST TUE JAN 17 2017

NOTES: SATELLITE DATA IS BEING USED TO AUGMENT CLOUD COVER ABOVE
       12000 FEET.
       "FAIR" INDICATES FEW OR NO CLOUDS BELOW 12,000 FEET WITH NO
       SIGNIFICANT WEATHER AND/OR OBSTRUCTIONS TO VISIBILITY.

  * THESE STATIONS DO NOT REPORT WEATHER SUCH AS RAIN...SNOW OR FOG.

NEZ001>004-019>022-054>056-172100-
NEBRASKA PANHANDLE

CITY           SKY/WX    TMP DP  RH WIND       PRES   REMARKS
SCOTTSBLUFF    SUNNY     43  21  41 NW7       29.97F
ALLIANCE       SUNNY     43  13  29 W17       29.96F
CHADRON        CLOUDY   N/A N/A N/A CALM      29.95F
KIMBALL        SUNNY     44  31  59 SW10      29.98F
SIDNEY         SUNNY     43  26  51 SW14      29.99F
$$

NEZ057>060-069>072-079>082-172100-
SOUTHWEST NEBRASKA

CITY           SKY/WX    TMP DP  RH WIND       PRES   REMARKS
NORTH PLATTE   SUNNY     43  27  53 W8        30.03F
IMPERIAL       SUNNY     42  25  50 W7        30.03F
LEXINGTON      SUNNY     42  31  64 NW3       30.04F
MCCOOK         SUNNY     43  28  55 W9        30.05F
OGALLALA       SUNNY     40  28  61 W8        30.02F WCI  35
$$

NEZ005>010-023>029-035>040-094-172100-
NORTH CENTRAL NEBRASKA

CITY           SKY/WX    TMP DP  RH WIND       PRES   REMARKS
VALENTINE      SUNNY     51  11  20 SW13      29.95F
AINSWORTH      SUNNY     48  24  38 SW10      29.97F
BROKEN BOW     SUNNY     39  29  67 SW5       30.01F
O`NEILL        SUNNY     42  33  72 SW6       30.00F
ORD            SUNNY     36  28  73 SW5       30.01F WCI  32
THEDFORD       SUNNY     49  20  31 SW16G22   29.99F
$$

NEZ041-046>049-061>064-073>077-083>087-172100-
SOUTH CENTRAL NEBRASKA

CITY           SKY/WX    TMP DP  RH WIND       PRES   REMARKS
GRAND ISLAND   SUNNY     36  33  89 W7        30.05F WCI  30
AURORA         SUNNY     35  32  90 CALM      30.05F
HASTINGS       SUNNY     36  31  82 W7        30.06F WCI  30
HEBRON         SUNNY     35  31  87 W6        30.08F WCI  30
HOLDREGE       SUNNY     40  33  75 W7        30.05F
KEARNEY *      SUNNY     39  30  70 CALM      30.05F
YORK           MIX PCPN  32  32 100 MISG      30.06F
$$

NEZ011>018-030>034-042>045-172100-
NORTHEAST NEBRASKA

CITY           SKY/WX    TMP DP  RH WIND       PRES   REMARKS
NORFOLK        SUNNY     32  27  81 VRB7      30.03F WCI  26
ALBION         SUNNY     34  30  85 W3        30.03F FOG
BLAIR          CLOUDY    31  28  91 SW3       30.05F FOG
FREMONT        SUNNY     32  28  84 W7        30.06F WCI  26
TEKAMAH        MOSUNNY   32  26  78 W5        30.06F WCI  27
WAYNE          SUNNY     32  29  88 W7        30.04S WCI  26
$$

NEZ050>053-065>068-078-088>093-172100-
SOUTHEAST NEBRASKA

CITY           SKY/WX    TMP DP  RH WIND       PRES   REMARKS
LINCOLN        SUNNY     36  29  75 W9        30.09S WCI  29
OMAHA EPPLEY   CLOUDY    31  26  82 W9        30.07S FOG     WCI  23
BEATRICE       MOSUNNY   35  31  84 W8        30.08S WCI  29
FALLS CITY     CLOUDY    36  33  89 W9        30.09S WCI  29
NEBRASKA CITY  CLOUDY    33  33  99 W6        30.08R WCI  27
PLATTSMOUTH    CLOUDY    31  29  91 W7        30.07R FOG     WCI  24
$$

NEZ044-045-051>053-067-172100-
OMAHA AREA

CITY           SKY/WX    TMP DP  RH WIND       PRES   REMARKS
OMAHA EPPLEY   CLOUDY    31  26  82 W9        30.07S FOG     WCI  23
BLAIR          CLOUDY    31  28  91 SW3       30.05F FOG
FREMONT        SUNNY     32  28  84 W7        30.06F WCI  26
MILLARD        PTSUNNY   35  29  80 W7        30.08S WCI  29
OFFUTT AFB     CLOUDY    32  32 100 W7        30.07S WCI  26
PLATTSMOUTH    CLOUDY    31  29  91 W7        30.07R FOG     WCI  24
WAHOO          FAIR      33  29  83 W6        30.07S WCI  28
$$




USA.gov is the U.S. government's official web portal to all federal, state and local government web resources and services.